Location: Gleizolles
(44.4833°N, 6.7667°E)
Time: 10:09:33
(UTC+00:00)

Cosmos 468 Rocket - Pass Details

Date: 09 April 2020
Orbit: 745 x 779 km, 74.0° (Epoch: 04 June)

Event Time Altitude Azimuth Distance (km) Brightness Sun altitude
Rises 20:34:27 0° 337° (NNW) 3,214 8.2 -23.7°
Reaches altitude 10° 20:36:49 10° 337° (NNW) 2,281 7.3 -24.1°
Maximum altitude 20:41:59 78° 252° (WSW) 769 3.9 -24.7°
Enters shadow 20:42:40 65° 190° (S) 820 3.9 -24.8°
